Location: Fontevrault
(47.1823°N, 0.0493°E)
Time: 03:39:06
(UTC+00:00)

Cosmos 1459 Rocket - Pass Details

Date: 18 October 2021
Orbit: 936 x 1000 km, 83.0° (Epoch: 01 December)

Event Time Altitude Azimuth Distance (km) Brightness Sun altitude
Exits shadow 21:23:26 23° 337° (NNW) 1,947 5.9 -42.3°
Drops below altitude 10° 21:25:56 10° 354° (N) 2,698 6.7 -42.6°
Sets 21:28:40 0° 3° (N) 3,639 7.4 -43.0°
